#timestamp,LO_Frequency,Hit,Temp,Hum 
1478296815.1,286046994.9,N,0.0,0.0
1478296835.9,286047001.4,N,0.0,0.0
1478296855.7,286047002.9,N,0.0,0.0
1478296875.5,286047003.6,N,0.0,0.0
1478296895.4,286047003.8,N,0.0,0.0
1478296915.2,286047007.4,Y,0.0,0.0
1478296935.0,286047000.7,N,0.0,0.0
1478296935.9,286047000.7,N,0.0,0.0
1478296955.8,286047002.2,N,0.0,0.0
1478296975.6,286047001.6,N,0.0,0.0
1478296995.4,286046998.4,N,0.0,0.0
1478297015.3,286047001.1,N,0.0,0.0
1478297035.1,286047002.5,N,0.0,0.0
1478297036.0,286047002.5,N,0.0,0.0
1478297055.8,286046999.8,N,0.0,0.0
1478297075.7,286047000.3,N,0.0,0.0
1478297095.5,286047001.4,N,0.0,0.0
1478297115.3,286047000.6,N,0.0,0.0
1478297135.2,286047001.1,N,0.0,0.0
1478297155.9,286047000.1,N,0.0,0.0
1478297175.7,286047002.5,N,0.0,0.0
1478297195.5,286047006.0,N,0.0,0.0
1478297215.4,286047001.9,N,0.0,0.0
1478297235.2,286047004.3,N,0.0,0.0
1478297255.0,286047001.3,N,0.0,0.0
1478297255.9,286047001.3,N,0.0,0.0
1478297275.8,286047002.4,N,0.0,0.0
1478297295.6,286047002.5,N,0.0,0.0
1478297315.4,286047004.0,N,0.0,0.0
1478297335.3,286047003.7,N,0.0,0.0
1478297355.1,286047001.5,N,0.0,0.0
1478297375.8,286047002.6,N,0.0,0.0
1478297395.7,286047004.3,N,0.0,0.0
1478297415.5,286047005.7,N,0.0,0.0
1478297435.3,286047003.4,N,0.0,0.0
1478297455.2,286047007.3,Y,0.0,0.0
1478297475.9,286047003.2,N,0.0,0.0
1478297495.7,286047003.0,N,0.0,0.0
1478297515.6,286047003.5,N,0.0,0.0
1478297535.4,286047005.3,N,0.0,0.0
1478297555.2,286047003.4,N,0.0,0.0
1478297575.1,286047001.7,N,0.0,0.0
1478297576.0,286047001.7,N,0.0,0.0
1478297595.8,286047004.2,N,0.0,0.0
1478297615.6,286047005.3,N,0.0,0.0
1478297635.5,286047007.6,Y,0.0,0.0
1478297655.3,286047004.2,N,0.0,0.0
1478297675.1,286047003.9,N,0.0,0.0
1478297695.9,286047005.8,N,0.0,0.0
1478297715.7,286047005.6,N,0.0,0.0
1478297735.5,286047004.2,N,0.0,0.0
1478297755.4,286047002.9,N,0.0,0.0
1478297775.2,286047005.4,N,0.0,0.0
1478297795.0,286047006.7,N,0.0,0.0
1478297795.9,286047006.7,N,0.0,0.0
1478297815.8,286047007.0,N,0.0,0.0
1478297835.6,286047004.9,N,0.0,0.0
1478297855.4,286047008.9,Y,0.0,0.0
1478297875.3,286047003.8,N,0.0,0.0
1478297895.1,286047009.2,Y,0.0,0.0
1478297896.0,286047009.2,Y,0.0,0.0
1478297915.8,286047002.3,N,0.0,0.0
1478297935.7,286047000.4,N,0.0,0.0
1478297955.5,286047000.4,N,0.0,0.0
1478297975.3,286047000.6,N,0.0,0.0
1478297995.2,286047000.8,N,0.0,0.0
1478298015.9,286047000.5,N,0.0,0.0
1478298035.7,286047004.4,N,0.0,0.0
1478298055.6,286047001.5,N,0.0,0.0
1478298075.4,286047003.3,N,0.0,0.0
1478298095.2,286047002.6,N,0.0,0.0
1478298115.1,286047003.8,N,0.0,0.0
1478298116.0,286047003.8,N,0.0,0.0
1478298135.8,286047005.5,N,0.0,0.0
1478298155.6,286047001.7,N,0.0,0.0
1478298175.4,286047000.2,N,0.0,0.0
1478298195.3,286047001.4,N,0.0,0.0
1478298215.1,286047004.1,N,0.0,0.0
1478298235.8,286047001.5,N,0.0,0.0
1478298255.7,286047001.4,N,0.0,0.0
1478298275.5,286047003.7,N,0.0,0.0
1478298295.3,286047004.5,N,0.0,0.0
1478298315.2,286047006.9,N,0.0,0.0
1478298335.9,286047007.6,N,0.0,0.0
1478298355.7,286047007.6,Y,0.0,0.0
1478298375.6,286047001.6,N,0.0,0.0
1478298395.4,286046999.7,N,0.0,0.0
1478298415.2,286047001.2,N,0.0,0.0
1478298435.1,286047000.9,N,0.0,0.0
1478298436.0,286047000.9,N,0.0,0.0
1478298455.8,286047001.8,N,0.0,0.0
1478298475.6,286047002.1,N,0.0,0.0
1478298495.5,286047000.7,N,0.0,0.0
1478298515.3,286047002.6,N,0.0,0.0
1478298535.1,286047002.4,N,0.0,0.0
1478298555.9,286047002.7,N,0.0,0.0
1478298575.7,286047001.8,N,0.0,0.0
1478298595.5,286047005.5,N,0.0,0.0
1478298615.4,286047006.0,N,0.0,0.0
1478298635.2,286047003.5,N,0.0,0.0
1478298655.0,286047003.5,N,0.0,0.0
1478298655.9,286047003.5,N,0.0,0.0
1478298675.8,286047005.6,N,0.0,0.0
1478298695.6,286047003.9,N,0.0,0.0
1478298715.4,286047002.2,N,0.0,0.0
1478298735.2,286047001.8,N,0.0,0.0
1478298755.1,286047003.2,N,0.0,0.0
1478298756.0,286047003.2,N,0.0,0.0
1478298775.8,286047006.7,Y,0.0,0.0
1478298795.7,286047001.7,N,0.0,0.0
1478298815.5,286047000.8,N,0.0,0.0
1478298835.3,286046998.1,N,0.0,0.0
1478298855.1,286047002.5,N,0.0,0.0
1478298875.9,286047000.6,N,0.0,0.0
1478298895.7,286047000.9,N,0.0,0.0
1478298915.5,286047000.3,N,0.0,0.0
1478298935.4,286047001.1,N,0.0,0.0
1478298955.2,286046998.6,N,0.0,0.0
1478298975.0,286046993.8,N,0.0,0.0
1478298975.9,286046993.8,N,0.0,0.0
1478298995.8,286047000.9,N,0.0,0.0
1478299015.6,286047000.4,N,0.0,0.0
1478299035.4,286046998.6,N,0.0,0.0
1478299055.3,286047002.8,N,0.0,0.0
1478299075.1,286047000.7,N,0.0,0.0
1478299095.8,286047000.0,N,0.0,0.0
1478299115.7,286047002.7,N,0.0,0.0
1478299135.5,286047000.8,N,0.0,0.0
1478299155.3,286047000.2,N,0.0,0.0
1478299175.2,286047000.2,N,0.0,0.0
1478299195.9,286047000.7,N,0.0,0.0
1478299215.7,286047002.8,N,0.0,0.0
1478299235.6,286047004.1,N,0.0,0.0
1478299255.4,286047000.2,N,0.0,0.0
1478299275.2,286047000.6,N,0.0,0.0
1478299295.0,286046998.3,N,0.0,0.0
1478299296.0,286046998.3,N,0.0,0.0
1478299315.8,286046998.5,N,0.0,0.0
1478299335.6,286046998.2,N,0.0,0.0
1478299355.4,286046998.8,N,0.0,0.0
1478299375.3,286047001.2,N,0.0,0.0
1478299395.1,286046999.4,N,0.0,0.0
1478299415.8,286046997.0,N,0.0,0.0
1478299435.7,286046999.0,N,0.0,0.0
1478299455.5,286046999.4,N,0.0,0.0
1478299475.3,286046999.9,N,0.0,0.0
1478299495.2,286046999.8,N,0.0,0.0
1478299515.9,286047001.0,N,0.0,0.0
1478299535.7,286046999.4,N,0.0,0.0
1478299555.6,286046998.1,N,0.0,0.0
1478299575.4,286047000.4,N,0.0,0.0
1478299595.2,286047002.5,N,0.0,0.0
1478299615.1,286047002.0,N,0.0,0.0
1478299616.0,286047002.0,N,0.0,0.0
1478299635.8,286046999.7,N,0.0,0.0
1478299655.6,286047000.3,N,0.0,0.0
1478299675.5,286046998.3,N,0.0,0.0
1478299695.3,286047000.8,N,0.0,0.0
1478299715.1,286047001.0,N,0.0,0.0
1478299735.8,286047002.8,N,0.0,0.0
1478299755.7,286046999.8,N,0.0,0.0
1478299775.5,286047000.3,N,0.0,0.0
1478299795.3,286046998.6,N,0.0,0.0
1478299815.2,286047000.6,N,0.0,0.0
1478299835.0,286047002.0,N,0.0,0.0
1478299835.9,286047002.0,N,0.0,0.0
1478299855.7,286046998.8,N,0.0,0.0
1478299875.6,286047003.1,N,0.0,0.0
1478299895.4,286047004.1,N,0.0,0.0
1478299915.2,286047001.9,N,0.0,0.0
1478299935.1,286047000.2,N,0.0,0.0
1478299936.0,286047000.2,N,0.0,0.0
1478299955.8,286046999.9,N,0.0,0.0
1478299975.6,286047002.8,N,0.0,0.0
1478299995.5,286047001.6,N,0.0,0.0
1478300015.3,286047000.1,N,0.0,0.0
1478300035.1,286047001.9,N,0.0,0.0
1478300055.9,286047003.5,N,0.0,0.0
1478300075.7,286047005.0,N,0.0,0.0
1478300095.5,286047006.9,Y,0.0,0.0
1478300115.4,286047005.3,N,0.0,0.0
1478300135.2,286047003.4,N,0.0,0.0
1478300155.0,286047003.0,N,0.0,0.0
1478300155.9,286047003.0,N,0.0,0.0
1478300175.8,286047003.1,N,0.0,0.0
1478300195.6,286047005.2,N,0.0,0.0
1478300215.4,286047005.5,N,0.0,0.0
1478300235.3,286047003.4,N,0.0,0.0
1478300255.1,286047005.1,N,0.0,0.0
1478300256.0,286047005.1,N,0.0,0.0
1478300275.8,286047003.4,N,0.0,0.0
1478300295.7,286047003.8,N,0.0,0.0
1478300315.5,286047004.4,N,0.0,0.0
1478300335.3,286047002.4,N,0.0,0.0
1478300355.1,286047004.4,N,0.0,0.0
1478300375.9,286047003.9,N,0.0,0.0
1478300395.7,286047003.4,N,0.0,0.0
